Home   Weather   42°22'N, 83°25'W   Past weeks
Flag for USA

Past Weather in 42°22'N, 83°25'W, USA — Yesterday and Last 2 Weeks

Now
81 °F

Scattered clouds.


Feels Like: 87 °F
Forecast: 93 / 79 °F
Wind: 13 mph from Southwest

Location: Detroit City Airport

Current Time: Jul 19, 2019 at 8:28:25 am

Latest Report: Jul 19, 2019 at 7:53 am


Visibility: 10 mi

Pressure: 29.84 "Hg

Humidity: 82%

Dew Point: 75 °F

Location of 42°22'N, 83°25'WLocation

Past Weather in 42°22'N, 83°25'W — Graph

°F

42°22'N, 83°25'W Temperature Yesterday

Maximum temperature yesterday: 88 °F (at 2:53 pm)
Minimum temperature yesterday: 67 °F (at 5:53 am)
Average temperature yesterday: 78 °F

High & Low Weather Summary for the Past Weeks

 TemperatureHumidityPressure
High92 °F (Jul 5, 2:55 pm)94% (Jul 16, 5:53 pm)30.14 "Hg (Jul 16, 5:53 pm)
Low59 °F (Jul 8, 5:53 am)34% (Jul 14, 1:53 pm)29.24 "Hg (Jul 11, 6:53 am)
Average76 °F66%29.95 "Hg
* Reported Jul 4 6:53 am — Jul 19 6:53 am, 42°22'N, 83°25'W. Weather by CustomWeather, © 2019

Note: Actual official high and low records may vary slightly from our data, if they occured in-between our weather recording intervals... More about our weather records

Advertising

42°22'N, 83°25'W Weather History for the Previous 24 Hours

Scroll right to see more
 ConditionsComfort  
Time TempWeatherWind HumidityBarometerVisibility
6:53 am
Fri, Jul 19
79 °FPassing clouds.9 mph84%29.82 "Hg10 mi
5:53 am78 °FPassing clouds.7 mph84%29.82 "Hg10 mi
4:53 am79 °FPassing clouds.14 mph82%29.81 "Hg10 mi
3:53 am78 °FPassing clouds.9 mph82%29.25 "Hg10 mi
2:53 am79 °FPassing clouds.10 mph79%29.82 "Hg10 mi
1:53 am79 °FPassing clouds.9 mph77%29.82 "Hg10 mi
12:53 am79 °FPassing clouds.12 mph74%29.83 "Hg10 mi
11:53 pm
Thu, Jul 18
79 °FClear.8 mph74%29.86 "Hg10 mi
10:53 pm80 °FPassing clouds.7 mph71%29.86 "Hg10 mi
9:53 pm79 °FClear.7 mph74%29.84 "Hg10 mi
8:53 pm81 °FSunny.8 mph69%29.82 "Hg10 mi
7:53 pm83 °FSunny.10 mph68%29.80 "Hg10 mi
6:53 pm83 °FSunny.12 mph68%29.80 "Hg10 mi
5:53 pm83 °FSunny.8 mph65%29.80 "Hg10 mi
4:53 pm82 °FSunny.9 mph67%29.77 "Hg10 mi
3:53 pm86 °FPassing clouds.13 mph61%29.84 "Hg10 mi
2:53 pm88 °FPartly sunny.12 mph57%29.88 "Hg10 mi
1:53 pm87 °FBroken clouds.8 mph61%29.90 "Hg10 mi
12:53 pm86 °FSunny.9 mph59%29.91 "Hg10 mi
11:53 am84 °FPassing clouds.9 mph53%29.93 "Hg10 mi
10:53 am83 °FSunny.6 mph48%29.92 "Hg10 mi
9:53 am79 °FSunny.6 mph56%29.93 "Hg10 mi
8:53 am75 °FSunny.5 mph69%29.93 "Hg10 mi
Weather by CustomWeather, © 2019

See weather overview